When you browse on this site, cookies collect data to enhance your experience and personalize the content and advertising you see.
Visit our Privacy Policy to learn more. By continuing to use the site, you agree to this use of cookies and data.
  • In United Kingdom
  • List of Countries
  • For 7 days
  • Water Temperature
  • Satellite Maps
  • Weather Map
  • Weather Widgets
  • user-avatar
    Login

    Hourly Weather Newcastle

    Today, 15 July, Monday

    Time Temperature Precipitation Wind Pressure Humidity
    00:00 +7°C° 0 mm 9 mps 760 mmHg 60%
    01:00 +7°C° 0 mm 9 mps 760 mmHg 60%
    02:00 +8°C° 0 mm 9 mps 759 mmHg 60%
    03:00 +8°C° 0 mm 9 mps 759 mmHg 60%
    04:00 +8°C° 0 mm 9 mps 758 mmHg 61%
    05:00 +10°C° 0 mm 8 mps 759 mmHg 60%
    06:00 +10°C° 0 mm 8 mps 759 mmHg 59%
    07:00 +10°C° 0 mm 7 mps 760 mmHg 59%
    08:00 +11°C° 0 mm 7 mps 760 mmHg 54%
    09:00 +13°C° 0 mm 8 mps 761 mmHg 50%
    10:00 +15°C° 0 mm 7 mps 762 mmHg 46%
    11:00 +16°C° 0 mm 7 mps 761 mmHg 43%
    12:00 +16°C° 0 mm 7 mps 761 mmHg 40%
    13:00 +17°C° 0 mm 6 mps 761 mmHg 37%
    14:00 +16°C° 0 mm 5 mps 761 mmHg 41%
    15:00 +16°C° 0 mm 5 mps 761 mmHg 44%
    16:00 +16°C° 0 mm 3 mps 762 mmHg 48%
    17:00 +13°C° 0 mm 3 mps 762 mmHg 53%
    18:00 +11°C° 0 mm 3 mps 763 mmHg 57%
    19:00 +10°C° 0 mm 3 mps 763 mmHg 62%
    20:00 +8°C° 0 mm 4 mps 763 mmHg 64%
    21:00 +8°C° 0 mm 4 mps 763 mmHg 66%
    22:00 +8°C° 0 mm 3 mps 763 mmHg 70%
    23:00 +7°C° 0 mm 4 mps 763 mmHg 71%

    Tomorrow, 16 July, Tuesday

    Time Temperature Precipitation Wind Pressure Humidity
    00:00 +7°C° 0 mm 4 mps 763 mmHg 72%
    01:00 +7°C° 0 mm 5 mps 763 mmHg 73%
    02:00 +7°C° 0 mm 5 mps 763 mmHg 74%
    03:00 +7°C° 0 mm 5 mps 763 mmHg 75%
    04:00 +7°C° 0 mm 5 mps 762 mmHg 76%
    05:00 +7°C° 0 mm 5 mps 763 mmHg 78%
    06:00 +6°C° 0 mm 5 mps 763 mmHg 79%
    07:00 +6°C° 0 mm 5 mps 763 mmHg 80%
    08:00 +8°C° 0 mm 5 mps 763 mmHg 73%
    09:00 +11°C° 0 mm 4 mps 763 mmHg 66%
    10:00 +12°C° 0 mm 4 mps 763 mmHg 59%
    11:00 +14°C° 0 mm 4 mps 762 mmHg 54%
    12:00 +17°C° 0 mm 3 mps 762 mmHg 50%
    13:00 +19°C° 0 mm 3 mps 761 mmHg 45%
    14:00 +19°C° 0 mm 2 mps 761 mmHg 47%
    15:00 +19°C° 0 mm 2 mps 761 mmHg 50%
    16:00 +19°C° 0 mm 2 mps 761 mmHg 52%
    17:00 +17°C° 0 mm 2 mps 762 mmHg 56%
    18:00 +14°C° 0 mm 3 mps 762 mmHg 60%
    19:00 +12°C° 0 mm 4 mps 763 mmHg 64%
    20:00 +11°C° 0 mm 4 mps 763 mmHg 66%
    21:00 +11°C° 0 mm 4 mps 764 mmHg 68%
    22:00 +10°C° 0 mm 4 mps 764 mmHg 70%
    23:00 +8°C° 0 mm 4 mps 764 mmHg 73%

    Day after tomorrow, 17 July, Wednesday

    Time Temperature Precipitation Wind Pressure Humidity
    00:00 +8°C° 0 mm 4 mps 764 mmHg 77%
    01:00 +7°C° 0 mm 4 mps 764 mmHg 81%
    02:00 +7°C° 0 mm 4 mps 764 mmHg 82%
    03:00 +7°C° 0 mm 4 mps 763 mmHg 83%
    04:00 +6°C° 0 mm 4 mps 763 mmHg 85%
    05:00 +6°C° 0 mm 4 mps 763 mmHg 85%
    06:00 +6°C° 0 mm 4 mps 763 mmHg 84%
    07:00 +6°C° 0 mm 4 mps 763 mmHg 84%
    08:00 +8°C° 0 mm 4 mps 763 mmHg 77%
    09:00 +11°C° 0 mm 4 mps 763 mmHg 70%
    10:00 +12°C° 0 mm 4 mps 763 mmHg 63%
    11:00 +14°C° 0 mm 4 mps 762 mmHg 58%
    12:00 +15°C° 0 mm 4 mps 762 mmHg 54%
    13:00 +18°C° 0 mm 4 mps 761 mmHg 49%
    14:00 +18°C° 0 mm 4 mps 760 mmHg 49%
    15:00 +18°C° 0 mm 4 mps 760 mmHg 49%
    16:00 +17°C° 0 mm 5 mps 760 mmHg 48%
    17:00 +16°C° 0 mm 5 mps 760 mmHg 51%
    18:00 +14°C° 0 mm 6 mps 761 mmHg 54%
    19:00 +11°C° 0 mm 7 mps 761 mmHg 57%
    20:00 +10°C° 0 mm 7 mps 761 mmHg 60%
    21:00 +9°C° 0 mm 6 mps 762 mmHg 63%
    22:00 +8°C° 0 mm 6 mps 762 mmHg 66%
    23:00 +8°C° 0 mm 6 mps 762 mmHg 65%

    18 July, Thursday

    Time Temperature Precipitation Wind Pressure Humidity
    00:00 +8°C° 0 mm 6 mps 761 mmHg 65%
    01:00 +8°C° 0 mm 6 mps 761 mmHg 64%
    02:00 +8°C° 0 mm 5 mps 761 mmHg 64%
    03:00 +7°C° 0 mm 5 mps 761 mmHg 67%
    04:00 +7°C° 0 mm 4 mps 761 mmHg 69%
    05:00 +7°C° 0 mm 5 mps 762 mmHg 71%
    06:00 +7°C° 0 mm 5 mps 762 mmHg 73%
    07:00 +6°C° 0 mm 5 mps 762 mmHg 75%
    08:00 +8°C° 0 mm 5 mps 763 mmHg 69%
    09:00 +10°C° 0 mm 5 mps 763 mmHg 63%
    10:00 +12°C° 0 mm 5 mps 763 mmHg 56%
    11:00 +14°C° 0 mm 4 mps 763 mmHg 51%
    12:00 +15°C° 0 mm 4 mps 762 mmHg 46%
    13:00 +18°C° 0 mm 3 mps 762 mmHg 40%
    14:00 +17°C° 0 mm 3 mps 762 mmHg 43%
    15:00 +17°C° 0 mm 2 mps 762 mmHg 45%
    16:00 +17°C° 0 mm 2 mps 762 mmHg 47%
    17:00 +15°C° 0 mm 2 mps 762 mmHg 51%
    18:00 +13°C° 0 mm 2 mps 763 mmHg 56%
    19:00 +12°C° 0 mm 2 mps 763 mmHg 60%
    20:00 +10°C° 0 mm 3 mps 763 mmHg 59%
    21:00 +10°C° 0 mm 4 mps 764 mmHg 59%
    22:00 +8°C° 0 mm 5 mps 764 mmHg 59%
    23:00 +8°C° 0 mm 5 mps 764 mmHg 62%

    19 July, Friday

    Time Temperature Precipitation Wind Pressure Humidity
    00:00 +7°C° 0 mm 5 mps 764 mmHg 65%
    01:00 +6°C° 0 mm 5 mps 764 mmHg 69%
    02:00 +6°C° 0 mm 5 mps 764 mmHg 70%
    03:00 +6°C° 0 mm 5 mps 764 mmHg 72%
    04:00 +5°C° 0 mm 4 mps 764 mmHg 74%
    05:00 +5°C° 0 mm 4 mps 765 mmHg 75%
    06:00 +5°C° 0 mm 4 mps 765 mmHg 76%
    07:00 +5°C° 0 mm 4 mps 766 mmHg 77%
    08:00 +7°C° 0 mm 4 mps 766 mmHg 69%
    09:00 +10°C° 0 mm 3 mps 766 mmHg 61%
    10:00 +12°C° 0 mm 3 mps 766 mmHg 54%
    11:00 +14°C° 0 mm 2 mps 766 mmHg 50%
    12:00 +16°C° 0 mm 2 mps 766 mmHg 46%
    13:00 +19°C° 0 mm 1 mps 765 mmHg 42%
    14:00 +18°C° 0 mm 1 mps 765 mmHg 45%
    15:00 +18°C° 0 mm 1 mps 765 mmHg 49%
    16:00 +18°C° 0 mm 1 mps 765 mmHg 52%
    17:00 +15°C° 0 mm 1 mps 766 mmHg 59%
    18:00 +12°C° 0 mm 1 mps 767 mmHg 65%
    19:00 +10°C° 0 mm 1 mps 767 mmHg 72%
    20:00 +10°C° 0 mm 1 mps 768 mmHg 75%
    21:00 +8°C° 0 mm 2 mps 768 mmHg 77%
    22:00 +8°C° 0 mm 2 mps 768 mmHg 79%
    23:00 +7°C° 0 mm 2 mps 768 mmHg 81%

    20 July, Saturday

    Time Temperature Precipitation Wind Pressure Humidity
    00:00 +7°C° 0 mm 2 mps 768 mmHg 82%
    01:00 +7°C° 0 mm 2 mps 768 mmHg 83%
    02:00 +6°C° 0 mm 2 mps 768 mmHg 85%
    03:00 +6°C° 0 mm 2 mps 768 mmHg 86%
    04:00 +6°C° 0 mm 2 mps 767 mmHg 88%
    05:00 +5°C° 0 mm 2 mps 768 mmHg 89%
    06:00 +5°C° 0 mm 2 mps 768 mmHg 89%
    07:00 +5°C° 0 mm 2 mps 768 mmHg 90%
    08:00 +8°C° 0 mm 2 mps 768 mmHg 78%
    09:00 +10°C° 0 mm 2 mps 768 mmHg 66%
    10:00 +14°C° 0 mm 2 mps 767 mmHg 54%
    11:00 +16°C° 0 mm 2 mps 767 mmHg 48%
    12:00 +17°C° 0 mm 2 mps 766 mmHg 43%
    13:00 +19°C° 0 mm 2 mps 765 mmHg 37%
    14:00 +19°C° 0 mm 2 mps 765 mmHg 40%
    15:00 +19°C° 0 mm 2 mps 765 mmHg 43%
    16:00 +19°C° 0 mm 1 mps 764 mmHg 46%
    17:00 +16°C° 0 mm 2 mps 765 mmHg 50%
    18:00 +14°C° 0 mm 2 mps 765 mmHg 54%
    19:00 +12°C° 0 mm 2 mps 766 mmHg 59%
    20:00 +10°C° 0 mm 2 mps 766 mmHg 61%
    21:00 +9°C° 0 mm 2 mps 766 mmHg 63%
    22:00 +9°C° 0 mm 2 mps 766 mmHg 65%
    23:00 +8°C° 0 mm 2 mps 765 mmHg 67%
    Show more